WA2GUG Weather Reports


time (UTC)temp
C
wind
direction
speed
KPH
gust
KPH
rain 1hr
cm
rain 24hr
cm
rain mn
cm
humidity
%
barometer
mb
20260509012927 3 143 0.0 0.0 0.00 0.00 0.00 99 1009.0
20260509012427 3 149 0.0 0.0 0.00 0.00 0.00 99 1009.0
20260509011927 3 157 0.0 0.0 0.00 0.00 0.00 99 1008.2
20260509011427 3 145 0.0 0.0 0.00 0.00 0.00 99 1008.1
20260509010927 3 145 0.0 0.0 0.00 0.00 0.00 99 1008.0
20260509010427 4 150 0.0 0.0 0.00 0.00 0.00 99 1008.0
20260509005927 4 161 0.0 0.0 0.00 0.00 0.00 99 1008.0
20260509005427 4 173 0.0 0.0 0.00 0.00 0.00 99 1008.0
20260509004927 5 140 0.0 0.0 0.00 0.00 0.00 99 1008.0
20260509004427 5 112 0.0 0.0 0.00 0.00 0.00 99 1008.0
20260509003927 5 139 0.0 0.0 0.00 0.00 0.00 99 1008.0
20260509003427 5 129 0.0 0.0 0.00 0.00 0.00 99 1007.2
20260509002927 6 180 0.0 0.0 0.00 0.00 0.00 99 1008.0
20260509002427 6 189 0.0 0.0 0.00 0.00 0.00 99 1007.2
20260509001927 7 211 0.0 0.0 0.00 0.00 0.00 99 1008.0
20260509001427 7 180 0.0 0.0 0.00 0.00 0.00 99 1008.0
20260509000927 7 180 0.0 0.0 0.00 0.00 0.00 99 1007.2
20260509000427 7 206 0.0 0.0 0.00 0.00 0.00 99 1008.0
20260508235927 8 195 0.0 0.0 0.00 0.00 0.00 99 1007.2
20260508235427 8 180 0.0 0.0 0.00 0.00 0.00 99 1007.2
20260508234927 10 180 0.0 0.0 0.00 0.00 0.00 99 1008.0
20260508234427 10 169 0.0 0.0 0.00 0.00 0.00 99 1007.2
20260508233927 11 174 0.0 0.0 0.00 0.00 0.00 99 1007.2
20260508233427 12 92 0.0 0.0 0.00 0.00 0.00 99 1007.2
20260508232927 13 67 0.0 0.0 0.00 0.00 0.00 99 1007.1
20260508232427 14 181 0.0 0.0 0.00 0.00 0.00 99 1007.0
20260508231927 15 179 0.0 0.0 0.00 0.00 0.00 99 1007.1
20260508231427 16 72 0.0 0.0 0.00 0.00 0.00 99 1007.2
20260508230927 17 4 0.0 0.0 0.00 0.00 0.00 99 1007.2
20260508230427 17 84 0.0 0.0 0.00 0.00 0.00 99 1007.1
20260508225927 17 47 0.0 0.0 0.00 0.00 0.00 99 1007.0
20260508225427 17 66 0.0 0.0 0.00 0.00 0.00 99 1007.0
20260508224927 17 79 0.0 0.0 0.00 0.00 0.00 99 1007.0
20260508224427 17 92 0.0 0.0 0.00 0.00 0.00 99 1007.0
20260508223927 17 79 0.0 0.0 0.00 0.00 0.00 99 1007.1
20260508223427 18 40 0.0 0.0 0.00 0.00 0.00 99 1007.2
20260508222927 18 72 0.0 0.0 0.00 0.00 0.00 99 1007.1
20260508222427 18 70 0.0 0.0 0.00 0.00 0.00 99 1007.1
20260508221927 19 52 0.0 0.0 0.00 0.00 0.00 99 1007.2
20260508221426 20 54 0.0 0.0 0.00 0.00 0.00 99 1007.1
20260508220926 20 39 0.0 0.0 0.00 0.00 0.00 99 1007.0
20260508220427 19 105 0.0 0.0 0.00 0.00 0.00 99 1007.0
20260508215927 18 43 0.0 0.0 0.00 0.00 0.00 99 1007.0
20260508215426 18 76 0.0 0.0 0.00 0.00 0.00 99 1007.0
20260508214926 19 46 0.0 0.0 0.00 0.00 0.00 99 1007.1
20260508214426 19 41 0.0 0.0 0.00 0.00 0.00 99 1007.2
20260508213926 18 42 0.0 0.0 0.00 0.00 0.00 99 1007.2
20260508213427 18 16 0.0 0.0 0.00 0.00 0.00 99 1007.2
20260508212926 18 40 0.0 1.6 0.00 0.00 0.00 99 1007.2
20260508212427 20 81 0.0 1.6 0.00 0.00 0.00 99 1007.2
20260508211926 20 44 0.0 1.6 0.00 0.00 0.00 99 1007.2
20260508211426 20 87 0.0 0.0 0.00 0.00 0.00 99 1007.2
20260508210926 19 38 0.0 0.0 0.00 0.00 0.00 99 1008.0
20260508210426 18 40 0.0 0.0 0.00 0.00 0.00 99 1007.2
20260508205926 17 76 0.0 0.0 0.00 0.00 0.00 99 1008.0
20260508205426 16 66 0.0 0.0 0.00 0.00 0.00 99 1007.2
20260508204926 16 91 0.0 0.0 0.00 0.00 0.00 99 1008.0
20260508204426 17 7 0.0 0.0 0.00 0.00 0.00 99 1007.2
20260508203926 17 45 0.0 1.6 0.00 0.00 0.00 99 1008.0
20260508203427 17 324 0.0 3.2 0.00 0.00 0.00 99 1007.2
20260508202926 17 47 0.0 3.2 0.00 0.00 0.00 99 1007.2
20260508202426 16 0 0.0 0.0 0.00 0.00 0.00 99 1007.2
20260508201926 15 298 0.0 0.0 0.00 0.00 0.00 99 1008.0
20260508201426 13 2 0.0 0.0 0.00 0.00 0.00 99 1008.0
20260508200926 13 49 0.0 0.0 0.00 0.00 0.00 99 1008.0
20260508200426 13 354 0.0 1.6 0.00 0.00 0.00 99 1007.2
20260508195926 13 45 0.0 4.8 0.00 0.00 0.00 99 1007.2
20260508195426 14 16 0.0 4.8 0.00 0.00 0.00 99 1007.2
20260508194926 15 42 0.0 0.0 0.00 0.00 0.00 99 1008.0
20260508194426 15 85 0.0 0.0 0.00 0.00 0.00 99 1007.2
20260508193926 15 79 0.0 0.0 0.00 0.00 0.00 99 1007.2
20260508193426 15 44 0.0 0.0 0.00 0.00 0.00 99 1007.2
20260508192926 16 309 0.0 0.0 0.00 0.00 0.00 99 1007.2
20260508192426 17 286 0.0 0.0 0.00 0.00 0.00 99 1007.2
20260508191926 17 81 0.0 0.0 0.00 0.00 0.00 99 1008.0
20260508191426 18 44 0.0 0.0 0.00 0.00 0.00 99 1008.0
20260508190926 17 87 0.0 0.0 0.00 0.00 0.00 99 1007.2
20260508190426 18 44 0.0 0.0 0.00 0.00 0.00 99 1007.2
20260508185926 18 359 0.0 0.0 0.00 0.00 0.00 99 1008.0
20260508185426 18 1 0.0 0.0 0.00 0.00 0.00 99 1007.2
20260508184926 19 356 0.0 0.0 0.00 0.00 0.00 99 1008.0
20260508184426 18 12 0.0 0.0 0.00 0.00 0.00 99 1008.0
20260508183926 17 311 0.0 0.0 0.00 0.00 0.00 99 1008.0
20260508183426 16 316 0.0 0.0 0.00 0.00 0.00 99 1008.0
20260508182926 15 81 0.0 8.0 0.00 0.00 0.00 99 1008.0
20260508182426 15 1 0.0 8.0 0.00 0.00 0.00 99 1008.0
20260508181926 16 349 0.0 0.0 0.00 0.00 0.00 99 1008.0
20260508181426 16 223 0.0 0.0 0.00 0.00 0.00 99 1008.0
20260508180926 16 38 0.0 0.0 0.00 0.00 0.00 99 1008.0
20260508180426 16 352 0.0 1.6 0.00 0.00 0.00 99 1008.0
20260508175926 13 2 0.0 6.4 0.00 0.00 0.00 99 1008.0
20260508175426 12 2 1.6 6.4 0.00 0.00 0.00 99 1008.0
20260508174926 10 78 0.0 1.6 0.00 0.00 0.00 99 1008.0
20260508174426 10 47 0.0 1.6 0.00 0.00 0.00 99 1008.0
20260508173926 10 84 0.0 1.6 0.00 0.00 0.00 99 1008.0
20260508173426 10 82 0.0 0.0 0.00 0.00 0.00 99 1008.0
20260508172926 10 70 0.0 0.0 0.00 0.00 0.00 99 1008.0
20260508172426 11 66 0.0 3.2 0.00 0.00 0.00 99 1008.0
20260508171926 11 43 0.0 3.2 0.00 0.00 0.00 99 1008.0
20260508171426 11 44 0.0 0.0 0.00 0.00 0.00 99 1008.0
20260508170926 12 82 0.0 1.6 0.00 0.00 0.00 99 1008.0
20260508170426 12 48 0.0 1.6 0.00 0.00 0.00 99 1008.0
20260508165926 13 84 0.0 0.0 0.00 0.00 0.00 99 1008.0
20260508165426 13 47 0.0 4.8 0.00 0.00 0.00 99 1008.0
20260508164926 13 74 0.0 4.8 0.00 0.00 0.00 99 1008.0
20260508164426 13 38 0.0 4.8 0.00 0.00 0.00 99 1008.0
20260508163926 13 38 0.0 4.8 0.00 0.00 0.00 99 1008.0
20260508163426 13 17 0.0 0.0 0.00 0.00 0.00 99 1008.0
20260508162926 13 94 0.0 0.0 0.00 0.00 0.00 99 1008.0
20260508162426 12 51 0.0 0.0 0.00 0.00 0.00 99 1008.0
20260508161926 12 39 0.0 3.2 0.00 0.00 0.00 99 1008.0
20260508161426 11 317 0.0 3.2 0.00 0.00 0.00 99 1008.0
20260508160926 10 50 0.0 3.2 0.00 0.00 0.00 99 1008.0
20260508160426 9 359 0.0 8.0 0.00 0.00 0.00 99 1008.0
20260508155926 8 41 1.6 8.0 0.00 0.00 0.00 99 1008.0
20260508155426 8 1 0.0 4.8 0.00 0.00 0.00 99 1008.0
20260508154926 8 310 0.0 3.2 0.00 0.00 0.00 99 1008.0
20260508154426 9 33 0.0 1.6 0.00 0.00 0.00 99 1008.0
20260508153926 10 359 0.0 6.4 0.00 0.00 0.00 99 1008.0
20260508153426 11 0 0.0 6.4 0.00 0.00 0.00 99 1008.0
20260508152926 12 321 0.0 6.4 0.00 0.00 0.00 99 1008.0
20260508152426 12 359 0.0 1.6 0.00 0.00 0.00 99 1008.0
20260508151926 14 76 0.0 1.6 0.00 0.00 0.00 99 1008.0
20260508151426 15 285 0.0 0.0 0.00 0.00 0.00 99 1007.2
20260508150926 17 9 0.0 0.0 0.00 0.00 0.00 99 1007.0
20260508150426 17 187 0.0 0.0 0.00 0.00 0.00 99 1007.0
20260508145926 17 146 0.0 3.2 0.00 0.00 0.00 99 1007.0
20260508145426 18 143 0.0 3.2 0.00 0.00 0.00 99 1007.1
20260508144926 18 171 0.0 0.0 0.00 0.00 0.00 99 1007.2
20260508144426 18 138 0.0 0.0 0.00 0.00 0.00 99 1007.2
20260508143926 18 140 0.0 0.0 0.00 0.00 0.00 99 1008.0
20260508143426 20 140 0.0 0.0 0.00 0.00 0.00 99 1008.0
20260508142926 20 70 0.0 9.7 0.00 0.00 0.00 99 1008.0
20260508142426 19 133 0.0 9.7 0.00 0.00 0.00 99 1008.0
20260508141926 19 133 0.0 0.0 0.00 0.00 0.00 99 1007.2
20260508141426 19 355 0.0 0.0 0.00 0.00 0.00 99 1008.0
20260508140926 19 91 0.0 0.0 0.00 0.00 0.00 99 1007.2
20260508140426 19 91 0.0 0.0 0.00 0.00 0.00 99 1007.2
20260508135926 19 42 0.0 0.0 0.00 0.00 0.00 99 1008.0
20260508135426 20 9 0.0 0.0 0.00 0.00 0.00 99 1008.0
20260508134926 19 95 0.0 0.0 0.00 0.00 0.00 99 1008.0
20260508134426 19 158 0.0 0.0 0.00 0.00 0.00 99 1008.0
20260508133926 18 127 0.0 0.0 0.00 0.00 0.00 99 1007.2
20260508133426 18 75 0.0 0.0 0.00 0.00 0.00 99 1007.2
20260508132926 18 146 0.0 0.0 0.00 0.00 0.00 99 1008.0
20260508132426 17 38 0.0 0.0 0.00 0.00 0.00 99 1008.0
20260508131926 17 81 0.0 1.6 0.00 0.00 0.00 99 1008.0
20260508131426 17 11 0.0 1.6 0.00 0.00 0.00 99 1008.0
20260508130926 17 224 0.0 1.6 0.00 0.00 0.00 99 1008.0
20260508130426 16 44 0.0 4.8 0.00 0.00 0.00 99 1008.0
20260508125926 16 284 0.0 4.8 0.00 0.00 0.00 99 1008.0
20260508125426 16 90 0.0 0.0 0.00 0.00 0.00 99 1008.0
20260508124926 16 83 0.0 0.0 0.00 0.00 0.00 99 1008.0
20260508124426 16 133 0.0 0.0 0.00 0.00 0.00 99 1008.0
20260508123926 15 79 0.0 0.0 0.00 0.00 0.00 99 1008.0
20260508123426 13 168 0.0 0.0 0.00 0.00 0.00 99 1008.0
20260508122426 10 84 0.0 0.0 0.00 0.00 0.00 99 1008.0
20260508121926 10 50 0.0 0.0 0.00 0.00 0.00 99 1008.0
20260508121426 10 81 0.0 11.3 0.00 0.00 0.00 99 1008.0
20260508120926 10 63 1.6 11.3 0.00 0.00 0.00 99 1008.0
20260508120426 10 183 0.0 0.0 0.00 0.00 0.00 99 1008.0
20260508115926 11 175 0.0 0.0 0.00 0.00 0.00 99 1008.0
20260508115426 11 72 0.0 0.0 0.00 0.00 0.00 99 1008.0
20260508114926 10 4 0.0 0.0 0.00 0.00 0.00 99 1008.0
20260508114426 10 133 0.0 0.0 0.00 0.00 0.00 99 1008.0
20260508113926 11 135 0.0 0.0 0.00 0.00 0.00 99 1008.0
20260508113426 10 116 0.0 0.0 0.00 0.00 0.00 99 1008.0
20260508112926 9 82 0.0 0.0 0.00 0.00 0.00 99 1008.0
20260508112426 8 168 0.0 3.2 0.00 0.00 0.00 99 1007.2
20260508111926 7 93 0.0 3.2 0.00 0.00 0.00 99 1008.0
20260508111426 6 86 0.0 1.6 0.00 0.00 0.00 99 1008.0
20260508110926 6 69 0.0 1.6 0.00 0.00 0.00 99 1008.0
20260508110426 5 85 0.0 0.0 0.00 0.00 0.00 99 1008.0
20260508105926 5 143 0.0 0.0 0.00 0.00 0.00 99 1007.2
20260508105426 5 95 0.0 0.0 0.00 0.00 0.00 99 1007.2
20260508104926 4 84 0.0 0.0 0.00 0.00 0.00 99 1007.2
20260508104426 3 197 0.0 0.0 0.00 0.00 0.00 99 1008.0
20260508103926 3 67 0.0 0.0 0.00 0.00 0.00 99 1007.2
20260508103426 3 74 0.0 0.0 0.00 0.00 0.00 99 1008.0
20260508102926 3 107 0.0 0.0 0.00 0.00 0.00 99 1007.2
20260508102426 3 75 0.0 0.0 0.00 0.00 0.00 99 1007.2
20260508101926 3 106 0.0 0.0 0.00 0.00 0.00 99 1008.0
20260508101426 2 59 0.0 0.0 0.00 0.00 0.00 99 1008.0
20260508100926 2 53 0.0 0.0 0.00 0.00 0.00 99 1008.0
20260508100426 2 67 0.0 0.0 0.00 0.00 0.00 99 1008.0
20260508095926 2 99 0.0 0.0 0.00 0.00 0.00 99 1008.0
20260508095426 2 106 0.0 0.0 0.00 0.00 0.00 99 1008.0
20260508094926 2 113 0.0 0.0 0.00 0.00 0.00 99 1007.2
20260508094426 2 41 0.0 0.0 0.00 0.00 0.00 99 1008.0
20260508093926 2 9 0.0 0.0 0.00 0.00 0.00 99 1008.0
20260508093426 2 45 0.0 0.0 0.00 0.00 0.00 99 1007.1
20260508092926 2 61 0.0 0.0 0.00 0.00 0.00 99 1007.0
20260508092426 2 67 0.0 0.0 0.00 0.00 0.00 99 1007.0
20260508091926 2 67 0.0 0.0 0.00 0.00 0.00 99 1007.0
20260508091426 2 73 0.0 0.0 0.00 0.00 0.00 99 1007.0
20260508090926 2 134 0.0 0.0 0.00 0.00 0.00 99 1007.0
20260508090426 2 144 0.0 0.0 0.00 0.00 0.00 99 1007.0
20260508085926 2 159 0.0 0.0 0.00 0.00 0.00 99 1007.0
20260508085426 2 195 0.0 0.0 0.00 0.00 0.00 99 1007.0
20260508084926 1 247 0.0 0.0 0.00 0.00 0.00 99 1007.0
20260508084426 1 247 0.0 0.0 0.00 0.00 0.00 99 1007.0
20260508083926 1 247 0.0 0.0 0.00 0.00 0.00 99 1007.0
20260508083426 1 247 0.0 0.0 0.00 0.00 0.00 99 1007.0
20260508082925 1 135 0.0 0.0 0.00 0.00 0.00 99 1007.0
20260508082425 1 150 0.0 0.0 0.00 0.00 0.00 99 1007.0
20260508081926 1 180 0.0 0.0 0.00 0.00 0.00 99 1007.0
20260508081425 1 167 0.0 0.0 0.00 0.00 0.00 99 1007.0
20260508080925 1 138 0.0 0.0 0.00 0.00 0.00 99 1007.0
20260508080425 1 81 0.0 0.0 0.00 0.00 0.00 99 1007.0
20260508075925 1 112 0.0 0.0 0.00 0.00 0.00 99 1007.0
20260508075425 1 112 0.0 0.0 0.00 0.00 0.00 99 1007.0
20260508074926 1 102 0.0 0.0 0.00 0.00 0.00 99 1007.0
20260508074425 1 112 0.0 0.0 0.00 0.00 0.00 99 1007.0
20260508073925 1 119 0.0 0.0 0.00 0.00 0.00 99 1007.0
20260508073426 1 135 0.0 0.0 0.00 0.00 0.00 99 1007.0
20260508072925 1 138 0.0 0.0 0.00 0.00 0.00 99 1007.0
20260508072425 1 157 0.0 0.0 0.00 0.00 0.00 99 1007.0
20260508071925 1 172 0.0 0.0 0.00 0.00 0.00 99 1007.0
20260508071425 1 180 0.0 0.0 0.00 0.00 0.00 99 1007.0
20260508070925 1 203 0.0 0.0 0.00 0.00 0.00 99 1007.0
20260508070425 2 225 0.0 0.0 0.00 0.00 0.00 99 1007.0
20260508065925 2 224 0.0 0.0 0.00 0.00 0.00 99 1007.0
20260508065425 2 193 0.0 0.0 0.00 0.00 0.00 99 1007.0
20260508064925 2 190 0.0 0.0 0.00 0.00 0.00 99 1007.0
20260508064426 2 246 0.0 0.0 0.00 0.00 0.00 99 1007.0
20260508063925 1 247 0.0 0.0 0.00 0.00 0.00 99 1007.0
20260508063426 1 233 0.0 0.0 0.00 0.00 0.00 99 1007.0
20260508062925 1 197 0.0 0.0 0.00 0.00 0.00 99 1007.0
20260508062425 1 202 0.0 0.0 0.00 0.00 0.00 99 1007.0
20260508061925 1 179 0.0 0.0 0.00 0.00 0.00 99 1007.0
20260508061425 1 118 0.0 0.0 0.00 0.00 0.00 99 1007.0
20260508060925 1 112 0.0 0.0 0.00 0.00 0.00 99 1007.0
20260508060425 1 125 0.0 0.0 0.00 0.00 0.00 99 1007.0
20260508055925 1 181 0.0 0.0 0.00 0.00 0.00 99 1007.0
20260508055425 1 173 0.0 0.0 0.00 0.00 0.00 99 1007.0
20260508054925 1 119 0.0 0.0 0.00 0.00 0.00 99 1007.0
20260508054425 1 78 0.0 0.0 0.00 0.00 0.00 99 1007.0
20260508053925 1 78 0.0 0.0 0.00 0.00 0.00 99 1007.0
20260508053425 1 104 0.0 0.0 0.00 0.00 0.00 99 1007.0
20260508052925 1 85 0.0 0.0 0.00 0.00 0.00 99 1007.0
20260508052425 1 142 0.0 0.0 0.00 0.00 0.00 99 1007.0
20260508051925 1 172 0.0 0.0 0.00 0.00 0.00 99 1006.2
20260508051425 0 151 0.0 0.0 0.00 0.00 0.00 99 1007.0
20260508050925 0 165 0.0 0.0 0.00 0.00 0.00 99 1007.0
20260508050425 0 146 0.0 0.0 0.00 0.00 0.00 99 1007.0
20260508045925 0 74 0.0 0.0 0.00 0.00 0.00 99 1007.0
20260508045425 0 48 0.0 0.0 0.00 0.00 0.00 99 1007.0
20260508044925 0 73 0.0 0.0 0.00 0.00 0.00 99 1007.0
20260508044425 0 52 0.0 0.0 0.00 0.00 0.00 99 1007.0
20260508043425 0 45 0.0 0.0 0.00 0.00 0.00 99 1006.2
20260508042925 0 93 0.0 0.0 0.00 0.00 0.00 99 1007.0
20260508042425 0 111 0.0 0.0 0.00 0.00 0.00 99 1007.0
20260508041925 0 57 0.0 0.0 0.00 0.00 0.00 99 1007.0
20260508041425 0 45 0.0 0.0 0.00 0.00 0.00 99 1007.0
20260508040925 0 45 0.0 0.0 0.00 0.00 0.00 99 1007.0
20260508040425 0 51 0.0 0.0 0.00 0.00 0.00 99 1007.0
20260508035925 1 79 0.0 0.0 0.00 0.00 0.00 99 1007.0
20260508035425 0 55 0.0 0.0 0.00 0.00 0.00 99 1007.0
20260508034925 0 117 0.0 0.0 0.00 0.00 0.00 99 1007.0
20260508034425 0 111 0.0 0.0 0.00 0.00 0.00 99 1007.0
20260508033925 1 112 0.0 0.0 0.00 0.00 0.00 99 1007.0
20260508033425 1 127 0.0 0.0 0.00 0.00 0.00 99 1007.0
20260508032925 1 94 0.0 0.0 0.00 0.00 0.00 99 1007.0
20260508032425 1 90 0.0 0.0 0.00 0.00 0.00 99 1007.0
20260508031925 1 90 0.0 0.0 0.00 0.00 0.00 99 1007.0
20260508031425 1 96 0.0 0.0 0.00 0.00 0.00 99 1007.0
20260508030925 1 135 0.0 0.0 0.00 0.00 0.00 99 1007.0
20260508030425 1 125 0.0 0.0 0.00 0.00 0.00 99 1007.0
20260508025925 1 112 0.0 0.0 0.00 0.00 0.00 99 1007.0
20260508025425 1 128 0.0 0.0 0.00 0.00 0.00 99 1007.0
20260508024925 1 148 0.0 0.0 0.00 0.00 0.00 99 1007.0
20260508024425 1 115 0.0 0.0 0.00 0.00 0.00 99 1007.0
20260508023925 1 135 0.0 0.0 0.00 0.00 0.00 99 1007.0
20260508023425 2 135 0.0 0.0 0.00 0.00 0.00 99 1007.0
20260508022925 2 135 0.0 0.0 0.00 0.00 0.00 99 1007.0
20260508022425 2 135 0.0 0.0 0.00 0.00 0.00 99 1007.0
20260508021925 2 135 0.0 0.0 0.00 0.00 0.00 99 1007.0
20260508021425 2 135 0.0 0.0 0.00 0.00 0.00 99 1007.0
20260508020925 2 135 0.0 0.0 0.00 0.00 0.00 99 1007.0
20260508020425 2 135 0.0 0.0 0.00 0.00 0.00 99 1007.0
20260508015925 2 147 0.0 0.0 0.00 0.00 0.00 99 1007.0
20260508015425 2 157 0.0 0.0 0.00 0.00 0.00 99 1007.0
20260508014925 2 135 0.0 0.0 0.00 0.00 0.00 99 1007.0
20260508014425 2 135 0.0 0.0 0.00 0.00 0.00 99 1007.0
20260508013925 3 135 0.0 0.0 0.00 0.00 0.00 99 1007.0
20260508013425 3 135 0.0 0.0 0.00 0.00 0.00 99 1007.0